Welcome to the New NWS' Forecast!
Most changes are behind the scenes, but click here for differences you might notice.

Regional Weather Roundup (RWR)

Issued by Goodland, KS (GLD)

                            
100 
ASUS43 KGLD 201259
RWRGLD

GOODLAND FORECAST AREA HOURLY WEATHER ROUNDUP
NATIONAL WEATHER SERVICE GOODLAND KS
700 AM MDT MON AUG 20 2018

...OFFICIAL OBSERVATIONS...
  
CITY           SKY/WX    TMP DP  RH WIND       PRES   REMARKS
GOODLAND KS    CLEAR     51  48  89 NW15      30.20R                  
HILL CITY KS   CLOUDY    61  53  75 NW20G31   30.05R HAZE             
IMPERIAL NEB   CLEAR     50  45  83 NW12      30.19R                  
MCCOOK NEB     PTSUNNY   55  47  74 NW13      30.12R HAZE             
AKRON CO       CLEAR     44  42  93 NW10      30.27R FOG              
BURLINGTON CO  PTCLDY    49  45  86 NW15      30.23R FOG              
LIMON CO       CLEAR     45  42  89 NW3       30.31R FOG              
$$

...UNOFFICIAL OBSERVATIONS...
  
CITY           SKY/WX    TMP DP  RH WIND       PRES   REMARKS
COLBY KS       SUNNY     52  46  82 NW15G21   30.17R                  
YUMA CO        FAIR      45  43  93 NW10      30.25R                  
$$